This demonstration page uses our WeatherBlox Daily Observations layout. Learn more.

Left ArrowRight Arrow

Hourly Observations for December 9, 2022

Temp ( °F °C ) Dew Point ( °F °C ) Humidity (%) Winds ( mph kmh ) Pressure ( in mb ) Visibility ( mi km ) Precip ( " mm )
12:51 am 00:51 Clear 41 5 40 4.4 96 96 Calm 30.09 1019 10 16 0.00 0.00
1:51 am 01:51 Clear 41 5 39 3.9 93 93 Calm 30.07 1018 10 16 0.00 0.00
2:51 am 02:51 Clear 40 4.4 37 2.8 89 89 Calm 30.08 1019 10 16 0.00 0.00
3:51 am 03:51 Clear 39 3.9 37 2.8 93 93 Calm 30.06 1018 10 16 0.00 0.00
4:51 am 04:51 Clear 40 4.4 38 3.3 93 93 Calm 30.05 1018 10 16 0.00 0.00
5:51 am 05:51 Clear 39 3.9 37 2.8 93 93 Calm 30.07 1018 10 16 0.00 0.00
6:51 am 06:51 Clear 40 4.4 37 2.8 89 89 Calm 30.07 1018 10 16 0.00 0.00
7:51 am 07:51 Sunny 40 4.4 37 2.8 89 89 Calm 30.09 1019 10 16 0.00 0.00
8:51 am 08:51 Sunny 43 6.1 39 3.9 86 86 Calm 30.10 1019 10 16 0.00 0.00
9:51 am 09:51 Sunny 47 8.3 40 4.4 76 76 Calm 30.09 1019 10 16 0.00 0.00
10:51 am 10:51 Sunny 54 12.2 40 4.4 59 59 NNE 3 6 30.06 1018 10 16 0.00 0.00
11:51 am 11:51 Sunny 56 13.3 39 3.9 53 53 Calm 30.03 1017 10 16 0.00 0.00
12:51 pm 12:51 Sunny 59 15 39 3.9 47 47 SSW 5 7 29.99 1016 10 16 0.00 0.00
1:51 pm 13:51 Sunny 61 16.1 39 3.9 44 44 W 5 7 29.96 1015 10 16 0.00 0.00
2:51 pm 14:51 Sunny 62 16.7 39 3.9 42 42 WSW 5 7 29.95 1014 10 16 0.00 0.00
3:51 pm 15:51 Sunny 62 16.7 39 3.9 42 42 WNW 7 11 29.95 1014 10 16 0.00 0.00
4:51 pm 16:51 Sunny 60 15.6 40 4.4 47 47 WNW 8 13 29.96 1015 10 16 0.00 0.00
5:51 pm 17:51 Clear 53 11.7 41 5 63 63 NW 5 7 29.98 1015 10 16 0.00 0.00
6:51 pm 18:51 Clear 49 9.4 41 5 74 74 NNW 7 11 29.99 1016 10 16 0.00 0.00
7:51 pm 19:51 Clear 47 8.3 41 5 80 80 NNW 7 11 30.01 1016 10 16 0.00 0.00
8:51 pm 20:51 Clear 48 8.9 40 4.4 73 73 NNW 7 11 30.01 1016 10 16 0.00 0.00
9:51 pm 21:51 Clear 46 7.8 39 3.9 76 76 WNW 5 7 30.02 1017 10 16 0.00 0.00
10:51 pm 22:51 Clear 41 5 38 3.3 89 89 N 3 6 30.03 1017 10 16 0.00 0.00
11:51 pm 23:51 Clear 41 5 37 2.8 86 86 Calm 30.03 1017 10 16 0.00 0.00

Powered by AerisWeather